This is the latest recevied weather packets stored in our database for station/object lw9ero. If no packets are shown the sender has not sent any weather packets the latest 10 day(s).
| Time | Temp. | Humidity | Pressure | Rain* | Wind** | Luminosity | Snow |
|---|---|---|---|---|---|---|---|
| 1777783851 | 2.22° C | 90% | 1031.6 hPa | 0 mm | - | 519 W/m² | - |
| 1777783246 | 2.22° C | 90% | 1031.2 hPa | 0 mm | - | 519 W/m² | - |
| 1777782640 | 2.78° C | 90% | 1031.4 hPa | 0 mm | - | 519 W/m² | - |
| 1777782034 | 2.78° C | 90% | 1031.5 hPa | 0 mm | - | 592 W/m² | - |
| 1777781429 | 2.22° C | 90% | 1031.5 hPa | 0 mm | - | 592 W/m² | - |
| 1777780832 | 2.78° C | 90% | 1031.6 hPa | 0 mm | - | 592 W/m² | - |
| 1777780215 | 2.78° C | 90% | 1031.6 hPa | 0 mm | - | 702 W/m² | - |
| 1777779609 | 2.78° C | 90% | 1031.6 hPa | 0 mm | - | 702 W/m² | - |
| 1777779003 | 2.78° C | 90% | 1031.7 hPa | 0 mm | - | 775 W/m² | - |
| 1777778396 | 3.33° C | 90% | 1031.6 hPa | 0 mm | - | 775 W/m² | - |
| 1777777790 | 3.33° C | 90% | 1031.7 hPa | 0 mm | - | 775 W/m² | - |
| 1777777183 | 3.33° C | 90% | 1031.5 hPa | 0 mm | - | 848 W/m² | - |
| 1777776577 | 3.89° C | 89% | 1031.6 hPa | 0 mm | - | 848 W/m² | - |
| 1777775971 | 3.89° C | 89% | 1031.6 hPa | 0 mm | - | 848 W/m² | - |
| 1777775365 | 3.89° C | 88% | 1031.5 hPa | 0 mm | - | 922 W/m² | - |
| 1777774760 | 4.44° C | 88% | 1031.4 hPa | 0 mm | - | 922 W/m² | - |
| 1777774153 | 4.44° C | 87% | 1031.7 hPa | 0 mm | - | 922 W/m² | - |
| 1777773546 | 4.44° C | 86% | 1031.5 hPa | 0 mm | - | 1031 W/m² | - |
| 1777772942 | 5° C | 86% | 1031.4 hPa | 0 mm | - | 1031 W/m² | - |
| 1777772335 | 5° C | 83% | 1031.6 hPa | 0 mm | - | 1031 W/m² | - |
| 1777771728 | 5° C | 83% | 1031.5 hPa | 0 mm | - | 1068 W/m² | - |
| 1777771122 | 5° C | 81% | 1031.4 hPa | 0 mm | - | 1068 W/m² | - |
| 1777770516 | 5.56° C | 79% | 1031.6 hPa | 0 mm | - | 1068 W/m² | - |
| 1777769910 | 5.56° C | 79% | 1031.4 hPa | 0 mm | - | 1178 W/m² | - |
| 1777769304 | 5.56° C | 78% | 1031.4 hPa | 0 mm | - | 1178 W/m² | - |
* Rain latest hour (hover to see other rain measurements)
** Current wind speed in m/s (hover to see current wind gust speed)